This is the latest recevied weather packets stored in our database for station/object KB1JL-13. If no packets are shown the sender has not sent any weather packets the latest 10 day(s).
| Time | Temp. | Humidity | Pressure | Rain* | Wind** | Luminosity | Snow |
|---|---|---|---|---|---|---|---|
| 1777392467 | 18.33° C | 49% | 1032.5 hPa | 0 mm | - | 567 W/m² | - |
| 1777392163 | 18.89° C | 48% | 1032.5 hPa | 0 mm | - | 626 W/m² | - |
| 1777391859 | 18.33° C | 48% | 1032.5 hPa | 0 mm | - | 648 W/m² | - |
| 1777391554 | 18.33° C | 52% | 1032.5 hPa | 0 mm | - | 625 W/m² | - |
| 1777391250 | 17.78° C | 51% | 1032.5 hPa | 0 mm | - | 661 W/m² | - |
| 1777390948 | 18.33° C | 49% | 1032.8 hPa | 0 mm | - | 595 W/m² | - |
| 1777390643 | 18.33° C | 46% | 1032.8 hPa | 0 mm | - | 690 W/m² | - |
| 1777390341 | 17.78° C | 48% | 1033.2 hPa | 0 mm | - | 701 W/m² | - |
| 1777390036 | 18.33° C | 50% | 1032.8 hPa | 0 mm | - | 727 W/m² | - |
| 1777389734 | 18.89° C | 49% | 1032.8 hPa | 0 mm | - | 763 W/m² | - |
| 1777389429 | 17.78° C | 49% | 1032.8 hPa | 0 mm | - | 741 W/m² | - |
| 1777389127 | 18.33° C | 49% | 1033.2 hPa | 0 mm | - | 675 W/m² | - |
| 1777388825 | 18.33° C | 50% | 1033.2 hPa | 0 mm | - | 677 W/m² | - |
| 1777388522 | 17.78° C | 52% | 1033.2 hPa | 0 mm | - | 709 W/m² | - |
| 1777388216 | 17.78° C | 46% | 1032.8 hPa | 0 mm | - | 681 W/m² | - |
| 1777387912 | 17.78° C | 48% | 1032.8 hPa | 0 mm | - | 721 W/m² | - |
| 1777387609 | 17.78° C | 48% | 1033.2 hPa | 0 mm | - | 681 W/m² | - |
| 1777387305 | 18.89° C | 48% | 1033.2 hPa | 0 mm | - | 647 W/m² | - |
| 1777386999 | 18.33° C | 48% | 1033.2 hPa | 0 mm | - | 641 W/m² | - |
| 1777386697 | 18.33° C | 49% | 1033.2 hPa | 0 mm | - | 672 W/m² | - |
| 1777386394 | 17.78° C | 47% | 1033.2 hPa | 0 mm | - | 684 W/m² | - |
| 1777386091 | 17.22° C | 48% | 1033.2 hPa | 0 mm | - | 667 W/m² | - |
| 1777385786 | 16.67° C | 49% | 1033.5 hPa | 0 mm | - | 661 W/m² | - |
| 1777385479 | 16.67° C | 50% | 1033.5 hPa | 0 mm | - | 642 W/m² | - |
| 1777385176 | 16.67° C | 51% | 1033.5 hPa | 0 mm | - | 640 W/m² | - |
* Rain latest hour (hover to see other rain measurements)
** Current wind speed in m/s (hover to see current wind gust speed)